This demonstration page uses our WeatherBlox Daily Observations layout. Learn more.

Left ArrowRight Arrow

Hourly Observations for June 30, 2017

Temp ( °F °C ) Dew Point ( °F °C ) Humidity (%) Winds ( mph kmh ) Pressure ( in mb ) Visibility ( mi km ) Precip ( " mm )
12:15 am 00:15 Clear 70 21.1 48 9 46 46 N 9 15 29.88 1012 10 16.0934 0 0
12:35 am 00:35 Clear 67 19.4 49 9.7 54 54 NNE 13 20 29.88 1012 10 16.0934 0 0
12:55 am 00:55 Clear 67 19.4 51 10.8 58 58 N 14 22 29.88 1012 10 16.0934 0 0
1:15 am 01:15 Clear 65 18.1 53 11.7 66 66 N 8 13 29.91 1013 10 16.0934 0 0
1:35 am 01:35 Clear 64 17.6 54 12.2 71 71 N 9 15 29.88 1012 10 16.0934 0 0
1:55 am 01:55 Clear 63 17.2 53 11.8 71 71 N 13 20 29.88 1012 10 16.0934 0 0
2:15 am 02:15 Clear 64 17.5 53 11.7 69 69 N 10 17 29.88 1012 10 16.0934 0 0
2:35 am 02:35 Clear 63 17 54 12 73 73 N 10 17 29.91 1013 10 16.0934 0 0
2:55 am 02:55 Clear 62 16.5 54 12 75 75 N 9 15 29.91 1013 10 16.0934 0 0
3:15 am 03:15 Clear 61 15.9 53 11.8 77 77 N 5 7 29.97 1015 10 16.0934 0 0
3:35 am 03:35 Clear 59 15.1 54 12 82 82 ENE 6 9 29.97 1015 10 16.0934 0 0
3:55 am 03:55 Clear 58 14.4 54 12.3 87 87 NNE 6 9 29.97 1015 10 16.0934 0 0
4:15 am 04:15 Clear 57 14 54 12.2 89 89 N 8 13 29.97 1015 10 16.0934 0 0
4:35 am 04:35 Clear 57 14.1 54 12.2 88 88 N 5 7 29.97 1015 10 16.0934 0 0
4:55 am 04:55 Clear 56 13.6 54 12 90 90 N 7 11 29.97 1015 10 16.0934 0 0
5:15 am 05:15 Clear 57 13.8 53 11.7 87 87 N 8 13 29.97 1015 10 16.0934 0 0
5:35 am 05:35 Clear 57 13.7 53 11.6 87 87 N 8 13 29.94 1014 10 16.0934 0 0
5:55 am 05:55 Clear 56 13.6 53 11.6 88 88 N 10 17 29.94 1014 10 16.0934 0 0
6:15 am 06:15 Sunny 57 13.7 53 11.7 88 88 N 6 9 29.97 1015 10 16.0934 0 0
6:35 am 06:35 Sunny 57 13.7 53 11.6 87 87 NNW 6 9 30 1016 10 16.0934 0 0
6:55 am 06:55 Sunny 57 14 53 11.7 86 86 NNW 3 6 30 1016 10 16.0934 0 0
7:15 am 07:15 Sunny 57 14.1 53 11.9 87 87 Calm 30.03 1017 10 16.0934 0 0
7:35 am 07:35 Sunny 58 14.5 54 12 85 85 Calm 30.06 1018 10 16.0934 0 0
7:55 am 07:55 Mostly Cloudy 59 15.1 55 12.5 85 85 W 5 7 30.06 1018 10 16.0934 0 0
8:15 am 08:15 Partly Cloudy 60 15.6 55 12.5 82 82 NW 3 6 30.06 1018 10 16.0934 0 0
8:35 am 08:35 Mostly Cloudy 60 15.8 55 12.7 82 82 N 5 7 30.06 1018 10 16.0934 0 0
8:55 am 08:55 Partly Cloudy 61 16.2 54 12.2 77 77 N 7 11 30.03 1017 10 16.0934 0 0
9:15 am 09:15 Sunny 62 16.6 55 12.6 77 77 N 5 7 30.06 1018 10 16.0934 0 0
9:35 am 09:35 Sunny 64 17.5 54 12.4 72 72 N 6 9 30.03 1017 10 16.0934 0 0
9:55 am 09:55 Partly Cloudy 65 18.2 54 12.3 69 69 NNW 5 7 30.03 1017 10 16.0934 0 0
10:15 am 10:15 Partly Cloudy 65 18.5 54 12.3 67 67 N 7 11 30.03 1017 10 16.0934 0 0
10:35 am 10:35 Sunny 65 18.5 54 12 66 66 NW 7 11 30.03 1017 10 16.0934 0 0
10:55 am 10:55 Mostly Cloudy 65 18.3 53 11.6 65 65 WNW 7 11 30.03 1017 10 16.0934 0 0
11:15 am 11:15 Cloudy 65 18.5 54 12.2 67 67 NNW 5 7 30 1016 10 16.0934 0 0
11:35 am 11:35 Partly Cloudy 67 19.2 54 12 63 63 NW 7 11 30.03 1017 10 16.0934 0 0
11:55 am 11:55 Sunny 66 18.8 53 11.9 64 64 WNW 9 15 30.03 1017 10 16.0934 0 0
12:15 pm 12:15 Partly Cloudy 66 19 54 12.1 64 64 W 8 13 30.06 1018 10 16.0934 0 0
12:35 pm 12:35 Mostly Cloudy with Light Rain 66 19 54 12.2 65 65 NW 6 9 30.03 1017 10 16.0934 0 0
12:55 pm 12:55 Partly Cloudy 67 19.5 53 11.8 61 61 NW 7 11 30.03 1017 10 16.0934 0 0
1:15 pm 13:15 Partly Cloudy 68 20 52 11.3 57 57 W 7 11 30.03 1017 10 16.0934 0 0
1:35 pm 13:35 Sunny 68 20.1 53 11.4 57 57 W 10 17 30.03 1017 10 16.0934 0 0
1:55 pm 13:55 Sunny 69 20.5 52 11.2 55 55 W 8 13 30 1016 10 16.0934 0 0
2:15 pm 14:15 Sunny 70 20.9 52 11.3 54 54 W 8 13 30 1016 10 16.0934 0 0
2:35 pm 14:35 Sunny 70 21.2 51 10.7 51 51 W 8 13 30 1016 10 16.0934 0 0
2:55 pm 14:55 Sunny 71 21.4 51 10.5 50 50 SW 7 11 30 1016 10 16.0934 0 0
3:15 pm 15:15 Sunny 71 21.5 50 10 48 48 WSW 7 11 30 1016 10 16.0934 0 0
3:35 pm 15:35 Sunny 71 21.5 50 10.1 48 48 WSW 10 17 30 1016 10 16.0934 0 0
3:55 pm 15:55 Sunny with Nearby Thunderstorms 71 21.6 50 9.9 47 47 W 10 17 30 1016 10 16.0934 0 0
4:15 pm 16:15 Sunny 72 22.1 51 10.4 48 48 WSW 13 20 30 1016 10 16.0934 0 0
4:35 pm 16:35 Partly Cloudy 72 22 52 11.1 50 50 W 8 13 30 1016 10 16.0934 0 0
4:55 pm 16:55 Partly Cloudy 71 21.6 51 10.7 50 50 W 10 17 30 1016 10 16.0934 0 0
5:15 pm 17:15 Partly Cloudy 68 20 55 12.7 63 63 N 7 11 30 1016 10 16.0934 0 0
5:35 pm 17:35 Sunny 69 20.3 55 12.8 62 62 NW 7 11 29.97 1015 10 16.0934 0 0
5:55 pm 17:55 Sunny 71 21.6 56 13.3 59 59 NNW 9 15 29.97 1015 10 16.0934 0 0
6:15 pm 18:15 Sunny 72 22.1 56 13.1 57 57 NW 7 11 29.97 1015 10 16.0934 0 0
6:35 pm 18:35 Sunny 72 22.3 55 12.9 55 55 NNW 7 11 29.97 1015 10 16.0934 0 0
7:15 pm 19:15 Sunny 72 22.3 51 10.5 47 47 NNW 8 13 29.97 1015 10 16.0934 0 0
7:35 pm 19:35 Sunny 71 21.8 53 11.9 53 53 NNW 6 9 29.97 1015 10 16.0934 0 0
7:55 pm 19:55 Sunny 71 21.5 55 12.6 57 57 N 6 9 29.97 1015 10 16.0934 0 0
8:15 pm 20:15 Sunny 69 20.8 55 12.9 61 61 N 5 7 29.97 1015 10 16.0934 0 0
8:35 pm 20:35 Sunny 68 20.2 55 13 63 63 NNW 3 6 29.97 1015 10 16.0934 0 0
8:55 pm 20:55 Sunny 68 20 55 12.7 63 63 NNW 3 6 30 1016 10 16.0934 0 0
9:15 pm 21:15 Clear 65 18.5 55 13 71 71 Calm 30 1016 10 16.0934 0 0
9:35 pm 21:35 Clear 64 17.5 55 13 75 75 Calm 30 1016 10 16.0934 0 0
9:55 pm 21:55 Clear 62 16.4 54 12.3 77 77 Calm 30.03 1017 10 16.0934 0 0
10:15 pm 22:15 Clear 62 16.7 55 12.5 76 76 Calm 30.06 1018 10 16.0934 0 0
10:35 pm 22:35 Clear 60 15.4 55 12.6 84 84 Calm 30.06 1018 10 16.0934 0 0
10:55 pm 22:55 Clear 60 15.8 55 12.5 81 81 Calm 30.06 1018 10 16.0934 0 0
11:15 pm 23:15 Clear 60 15.4 54 12.3 82 82 Calm 30.06 1018 10 16.0934 0 0
11:35 pm 23:35 Clear 59 15.1 54 12.1 82 82 SW 3 6 30.09 1019 10 16.0934 0 0
11:55 pm 23:55 Clear 58 14.6 53 11.8 83 83 Calm 30.06 1018 10 16.0934 0 0

Powered by AerisWeather